When you browse on this site, cookies collect data to enhance your experience and personalize the content and advertising you see.
Visit our Privacy Policy to learn more. By continuing to use the site, you agree to this use of cookies and data.
EN

Hourly Weather Nachod

Today, 8 July, Wednesday

Time Temperature Precipitation Wind Pressure Humidity
00:00 +11°C° 0 mm 1 mps 725 mmHg 82%
01:00 +12°C° 0 mm 2 mps 725 mmHg 80%
02:00 +12°C° 0 mm 1 mps 725 mmHg 80%
03:00 +12°C° 0 mm 1 mps 725 mmHg 79%
04:00 +12°C° 0 mm 1 mps 725 mmHg 78%
05:00 +13°C° 0 mm 1 mps 725 mmHg 79%
06:00 +13°C° 0 mm 1 mps 725 mmHg 80%
07:00 +14°C° 0 mm 1 mps 725 mmHg 81%
08:00 +14°C° 0.1 mm 1 mps 725 mmHg 83%
09:00 +14°C° 0.1 mm 1 mps 725 mmHg 84%
10:00 +14°C° 0.1 mm 1 mps 725 mmHg 86%
11:00 +13°C° 0.3 mm 1 mps 725 mmHg 88%
12:00 +13°C° 0.3 mm 1 mps 725 mmHg 90%
13:00 +13°C° 0.3 mm 2 mps 725 mmHg 92%
14:00 +13°C° 1 mm 2 mps 725 mmHg 94%
15:00 +13°C° 1 mm 2 mps 724 mmHg 96%
16:00 +13°C° 1 mm 2 mps 724 mmHg 97%
17:00 +13°C° 0.4 mm 2 mps 725 mmHg 97%
18:00 +13°C° 0.4 mm 2 mps 725 mmHg 97%
19:00 +13°C° 0.4 mm 2 mps 725 mmHg 98%
20:00 +13°C° 0 mm 2 mps 725 mmHg 97%
21:00 +12°C° 0 mm 2 mps 725 mmHg 97%
22:00 +12°C° 0 mm 1 mps 726 mmHg 97%
23:00 +12°C° 0 mm 1 mps 726 mmHg 97%

Tomorrow, 9 July, Thursday

Time Temperature Precipitation Wind Pressure Humidity
00:00 +11°C° 0 mm 1 mps 726 mmHg 97%
01:00 +10°C° 0 mm 0 mps 726 mmHg 96%
02:00 +10°C° 0 mm 0 mps 726 mmHg 97%
03:00 +9°C° 0 mm 0 mps 726 mmHg 97%
04:00 +9°C° 0 mm 0 mps 726 mmHg 97%
05:00 +11°C° 0 mm 1 mps 726 mmHg 95%
06:00 +12°C° 0 mm 1 mps 726 mmHg 93%
07:00 +13°C° 0 mm 1 mps 726 mmHg 91%
08:00 +14°C° 0 mm 1 mps 726 mmHg 90%
09:00 +14°C° 0 mm 2 mps 727 mmHg 89%
10:00 +15°C° 0 mm 2 mps 727 mmHg 87%
11:00 +15°C° 0 mm 2 mps 726 mmHg 86%
12:00 +16°C° 0 mm 3 mps 726 mmHg 86%
13:00 +16°C° 0 mm 3 mps 726 mmHg 85%
14:00 +17°C° 0 mm 3 mps 726 mmHg 84%
15:00 +18°C° 0 mm 3 mps 725 mmHg 82%
16:00 +19°C° 0 mm 3 mps 725 mmHg 81%
17:00 +19°C° 0 mm 3 mps 725 mmHg 84%
18:00 +19°C° 0 mm 3 mps 724 mmHg 87%
19:00 +18°C° 0 mm 2 mps 724 mmHg 90%
20:00 +18°C° 0 mm 2 mps 724 mmHg 92%
21:00 +17°C° 0 mm 2 mps 724 mmHg 93%
22:00 +17°C° 0 mm 2 mps 724 mmHg 95%
23:00 +16°C° 0.1 mm 2 mps 724 mmHg 95%

Day after tomorrow, 10 July, Friday

Time Temperature Precipitation Wind Pressure Humidity
00:00 +16°C° 0.1 mm 2 mps 724 mmHg 95%
01:00 +16°C° 0.1 mm 2 mps 724 mmHg 96%
02:00 +15°C° 0 mm 2 mps 723 mmHg 96%
03:00 +15°C° 0 mm 2 mps 723 mmHg 96%
04:00 +15°C° 0 mm 2 mps 723 mmHg 96%
05:00 +16°C° 0 mm 2 mps 723 mmHg 93%
06:00 +18°C° 0 mm 2 mps 723 mmHg 90%
07:00 +19°C° 0 mm 2 mps 723 mmHg 87%
08:00 +21°C° 0.1 mm 3 mps 723 mmHg 81%
09:00 +22°C° 0.1 mm 4 mps 723 mmHg 76%
10:00 +25°C° 0.1 mm 4 mps 723 mmHg 70%
11:00 +25°C° 0.2 mm 5 mps 723 mmHg 67%
12:00 +26°C° 0.2 mm 5 mps 723 mmHg 64%
13:00 +27°C° 0.2 mm 6 mps 723 mmHg 61%
14:00 +27°C° 0.3 mm 5 mps 722 mmHg 64%
15:00 +27°C° 0.3 mm 4 mps 722 mmHg 67%
16:00 +27°C° 0.3 mm 4 mps 722 mmHg 69%
17:00 +25°C° 1.6 mm 4 mps 721 mmHg 75%
18:00 +23°C° 1.6 mm 4 mps 721 mmHg 81%
19:00 +22°C° 1.6 mm 5 mps 721 mmHg 87%
20:00 +20°C° 2.8 mm 3 mps 721 mmHg 90%
21:00 +19°C° 2.8 mm 2 mps 722 mmHg 93%
22:00 +18°C° 2.8 mm 1 mps 722 mmHg 95%
23:00 +18°C° 1.9 mm 1 mps 723 mmHg 96%

11 July, Saturday

Time Temperature Precipitation Wind Pressure Humidity
00:00 +18°C° 1.9 mm 1 mps 723 mmHg 96%
01:00 +18°C° 1.9 mm 1 mps 723 mmHg 96%
02:00 +16°C° 0.1 mm 1 mps 724 mmHg 96%
03:00 +16°C° 0.1 mm 1 mps 724 mmHg 95%
04:00 +15°C° 0.1 mm 1 mps 724 mmHg 95%
05:00 +15°C° 0.1 mm 2 mps 724 mmHg 94%
06:00 +15°C° 0.1 mm 2 mps 725 mmHg 93%
07:00 +15°C° 0.1 mm 2 mps 725 mmHg 93%
08:00 +15°C° 0.1 mm 2 mps 726 mmHg 91%
09:00 +15°C° 0.1 mm 2 mps 726 mmHg 89%
10:00 +15°C° 0.1 mm 2 mps 727 mmHg 87%
11:00 +15°C° 0.2 mm 2 mps 727 mmHg 86%
12:00 +15°C° 0.2 mm 2 mps 727 mmHg 84%
13:00 +14°C° 0.2 mm 3 mps 727 mmHg 83%
14:00 +15°C° 0.1 mm 2 mps 727 mmHg 80%
15:00 +16°C° 0.1 mm 2 mps 728 mmHg 77%
16:00 +16°C° 0.1 mm 2 mps 728 mmHg 74%
17:00 +15°C° 0.1 mm 2 mps 728 mmHg 76%
18:00 +15°C° 0.1 mm 1 mps 728 mmHg 78%
19:00 +14°C° 0.1 mm 0 mps 728 mmHg 80%
20:00 +13°C° 0 mm 1 mps 728 mmHg 82%
21:00 +12°C° 0 mm 1 mps 729 mmHg 84%
22:00 +11°C° 0 mm 1 mps 729 mmHg 86%
23:00 +10°C° 0 mm 1 mps 729 mmHg 86%

12 July, Sunday

Time Temperature Precipitation Wind Pressure Humidity
00:00 +10°C° 0 mm 1 mps 729 mmHg 87%
01:00 +10°C° 0 mm 1 mps 729 mmHg 88%
02:00 +9°C° 0 mm 1 mps 729 mmHg 89%
03:00 +9°C° 0 mm 1 mps 729 mmHg 91%
04:00 +9°C° 0 mm 1 mps 729 mmHg 92%
05:00 +10°C° 0 mm 1 mps 730 mmHg 87%
06:00 +12°C° 0 mm 1 mps 730 mmHg 82%
07:00 +13°C° 0 mm 1 mps 731 mmHg 78%
08:00 +15°C° 0 mm 2 mps 731 mmHg 72%
09:00 +16°C° 0 mm 2 mps 731 mmHg 67%
10:00 +17°C° 0 mm 2 mps 731 mmHg 62%
11:00 +17°C° 0.1 mm 2 mps 731 mmHg 60%
12:00 +18°C° 0.1 mm 3 mps 731 mmHg 58%
13:00 +18°C° 0.1 mm 3 mps 731 mmHg 56%
14:00 +18°C° 0.1 mm 3 mps 731 mmHg 56%
15:00 +18°C° 0.1 mm 3 mps 731 mmHg 56%
16:00 +18°C° 0.1 mm 3 mps 731 mmHg 57%
17:00 +17°C° 0 mm 3 mps 730 mmHg 62%
18:00 +16°C° 0 mm 2 mps 730 mmHg 67%
19:00 +15°C° 0 mm 2 mps 730 mmHg 73%
20:00 +14°C° 0 mm 1 mps 730 mmHg 75%
21:00 +12°C° 0 mm 1 mps 730 mmHg 77%
22:00 +11°C° 0 mm 1 mps 731 mmHg 79%
23:00 +10°C° 0 mm 1 mps 730 mmHg 81%

13 July, Monday

Time Temperature Precipitation Wind Pressure Humidity
00:00 +10°C° 0 mm 1 mps 730 mmHg 82%
01:00 +9°C° 0 mm 1 mps 730 mmHg 83%
02:00 +8°C° 0 mm 0 mps 730 mmHg 84%
03:00 +8°C° 0 mm 0 mps 730 mmHg 85%
04:00 +7°C° 0 mm 0 mps 730 mmHg 86%
05:00 +9°C° 0 mm 0 mps 730 mmHg 81%
06:00 +11°C° 0 mm 0 mps 730 mmHg 76%
07:00 +13°C° 0 mm 0 mps 730 mmHg 70%
08:00 +14°C° 0 mm 0 mps 730 mmHg 66%
09:00 +18°C° 0 mm 1 mps 730 mmHg 62%
10:00 +19°C° 0 mm 1 mps 730 mmHg 57%
11:00 +20°C° 0 mm 1 mps 730 mmHg 57%
12:00 +20°C° 0 mm 1 mps 730 mmHg 57%
13:00 +18°C° 0 mm 0 mps 729 mmHg 57%
14:00 +18°C° 0 mm 0 mps 729 mmHg 57%
15:00 +18°C° 0 mm 0 mps 729 mmHg 57%
16:00 +19°C° 0 mm 0 mps 728 mmHg 57%
17:00 +20°C° 0 mm 1 mps 728 mmHg 63%
18:00 +19°C° 0 mm 1 mps 727 mmHg 69%
19:00 +18°C° 0 mm 1 mps 727 mmHg 75%
20:00 +15°C° 0 mm 1 mps 727 mmHg 79%
21:00 +14°C° 0 mm 1 mps 727 mmHg 84%
22:00 +12°C° 0 mm 1 mps 727 mmHg 88%
23:00 +12°C° 0 mm 1 mps 727 mmHg 88%
Show more